Total_Precipitation_Accumulation
0.18 0.44 0.96 1.48 2.21 2.99 2.63 1.77 1.03 0.79 0.70 0.74 0.80 0.80 0.92 1.09 1.58 2.35 2.41 2.22 2.01 2.28 2.74 3.44 3.66 3.18 2.89 2.86 2.75 2.76 2.93 2.95 3.00 3.07 3.12 3.20 3.40 3.52 3.68 3.60 3.37 3.30 3.26 3.15 3.32 3.49 3.42 3.32 3.18
0.32 0.70 1.24 1.81 2.72 2.93 2.28 1.87 1.02 0.77 0.68 0.69 0.71 0.77 0.83 0.78 0.83 1.35 2.12 2.02 1.82 1.97 2.29 2.90 3.48 3.16 2.81 2.81 2.79 2.88 2.99 2.97 3.00 3.15 3.26 3.37 3.53 3.65 3.57 3.35 3.23 3.23 3.16 3.07 3.19 3.45 3.36 3.09 3.09
0.47 0.89 1.27 1.89 2.05 1.91 1.60 1.27 0.85 0.72 0.63 0.74 0.77 0.72 0.75 1.04 1.04 1.44 1.83 1.67 1.78 1.91 2.20 3.01 3.44 3.27 3.04 2.92 2.99 2.90 2.91 2.99 3.17 3.43 3.51 3.66 3.64 3.66 3.48 3.26 3.17 3.01 2.83 2.90 3.10 3.34 3.20 2.98 3.03
0.55 0.94 1.28 1.46 1.30 1.02 0.85 0.71 0.56 0.63 0.56 0.63 0.74 0.75 0.89 1.07 1.06 1.40 1.60 1.62 1.71 1.94 2.25 2.87 3.23 3.18 3.08 2.89 2.89 3.03 3.26 3.42 3.54 3.61 3.59 3.64 3.60 3.63 3.42 3.07 2.95 2.73 2.53 2.53 2.76 3.02 3.08 2.95 2.97
0.71 1.15 1.46 1.21 0.96 0.79 0.63 0.54 0.50 0.59 0.56 0.67 0.78 0.97 1.28 1.31 1.16 1.43 1.59 1.58 1.61 1.78 2.12 2.46 3.02 3.26 3.17 3.04 3.11 3.21 3.28 3.37 3.44 3.40 3.20 3.10 3.14 3.24 3.09 2.84 2.73 2.56 2.30 2.25 2.68 2.96 2.97 2.77 2.75
0.90 1.31 1.19 0.95 0.81 0.67 0.60 0.47 0.45 0.53 0.57 0.65 0.84 1.16 1.72 1.85 1.59 1.49 1.47 1.38 1.53 1.74 1.99 2.26 2.83 3.16 3.28 3.25 3.37 3.40 3.33 3.39 3.34 3.15 2.96 2.80 2.67 2.84 2.78 2.60 2.66 2.56 2.37 2.50 2.85 2.93 2.76 2.67 2.75
1.12 1.30 0.88 0.67 0.65 0.64 0.54 0.40 0.45 0.47 0.58 0.78 0.95 1.33 1.96 2.37 1.95 1.54 1.51 1.57 1.78 1.84 1.95 2.35 2.76 2.88 2.99 3.42 3.54 3.52 3.46 3.50 3.38 3.20 2.92 2.69 2.54 2.54 2.48 2.51 2.64 2.59 2.61 2.77 3.00 3.01 2.88 2.78 2.96
0.61 0.75 0.67 0.52 0.42 0.50 0.46 0.38 0.42 0.49 0.57 0.71 0.90 1.29 1.98 2.02 1.75 1.65 1.87 2.00 2.23 2.19 2.10 2.27 2.51 2.52 2.66 3.05 3.42 3.46 3.32 3.25 3.25 3.29 3.01 2.94 2.82 2.61 2.52 2.48 2.63 2.75 2.83 3.08 3.20 3.18 3.10 2.96 3.10
0.42 0.63 0.55 0.36 0.33 0.39 0.36 0.38 0.41 0.42 0.49 0.68 0.85 1.13 1.50 1.47 1.46 1.53 2.13 2.35 2.42 2.34 2.36 2.32 2.25 2.29 2.58 2.74 3.05 3.29 3.40 3.42 3.45 3.57 3.33 3.19 3.15 2.81 2.79 2.75 3.06 3.23 3.13 3.41 3.62 3.67 3.44 3.39 3.68
0.31 0.37 0.26 0.19 0.21 0.27 0.32 0.39 0.41 0.48 0.72 1.07 1.34 1.38 1.32 1.33 1.50 1.74 2.21 2.21 2.41 2.54 2.44 2.49 2.43 2.33 2.43 2.59 2.91 3.23 3.01 3.20 3.51 3.63 3.44 3.26 3.38 3.38 2.78 3.10 3.72 3.92 3.83 3.98 4.19 4.18 3.65 3.39 3.49
0.20 0.21 0.17 0.16 0.18 0.23 0.27 0.36 0.41 0.52 0.98 1.43 1.85 1.70 1.47 1.55 1.69 1.99 2.41 2.64 2.65 2.84 2.70 2.71 2.55 2.33 2.22 2.52 2.52 2.78 2.95 3.25 3.47 3.31 3.20 3.16 2.97 2.92 2.90 3.35 4.01 4.13 4.01 4.11 4.33 4.11 3.52 3.64 3.95
0.12 0.13 0.15 0.17 0.20 0.24 0.33 0.39 0.48 0.58 0.87 0.99 1.21 1.47 1.61 1.80 2.03 2.31 2.50 2.75 2.78 2.89 2.87 3.03 2.76 2.70 2.75 2.60 2.34 2.28 2.36 2.65 3.01 3.26 3.15 3.16 3.41 3.45 3.40 3.65 3.74 3.93 4.09 4.49 4.22 4.25 4.06 4.05 3.93
0.10 0.11 0.15 0.16 0.19 0.25 0.33 0.35 0.49 0.63 0.68 0.74 1.06 1.42 1.81 1.98 2.24 2.55 2.65 2.95 2.87 2.85 2.94 3.13 3.04 2.89 2.94 2.79 2.67 2.44 2.52 2.53 2.67 2.91 3.15 3.17 3.55 3.88 3.86 3.81 3.75 3.67 3.60 3.83 4.02 3.92 4.24 4.44 4.02
0.09 0.11 0.14 0.16 0.20 0.31 0.35 0.37 0.50 0.67 0.76 0.94 1.19 1.46 1.76 2.06 2.26 2.43 2.87 3.04 3.15 3.10 3.21 3.11 3.12 3.09 3.12 3.20 3.22 3.09 2.74 2.82 2.78 2.88 2.96 3.10 3.55 4.02 4.13 3.96 3.78 3.54 3.42 3.51 3.70 3.85 4.34 4.37 4.18
0.12 0.18 0.20 0.21 0.29 0.32 0.38 0.60 0.73 0.86 0.89 1.02 1.25 1.40 1.67 2.19 2.43 2.46 2.81 3.00 2.99 3.46 3.58 3.62 3.55 3.73 3.75 3.67 3.57 3.30 3.08 2.90 2.94 3.19 3.31 3.23 3.42 3.83 3.81 3.58 3.42 3.37 3.45 3.67 3.66 3.87 4.05 3.79 3.88
0.16 0.30 0.38 0.34 0.33 0.30 0.43 0.89 0.94 1.05 1.00 1.15 1.35 1.49 1.72 2.04 2.37 2.51 2.81 3.03 3.16 3.61 3.91 4.23 4.05 4.13 4.04 4.08 4.04 3.70 3.41 3.23 3.11 3.17 3.30 3.12 3.11 3.31 3.64 3.36 3.21 3.50 3.54 3.69 4.01 4.18 4.06 4.10 4.18
0.24 0.31 0.35 0.34 0.31 0.31 0.41 0.75 0.89 1.09 1.28 1.42 1.53 1.68 1.70 1.98 2.30 2.67 2.92 3.25 3.53 3.92 4.35 4.84 4.78 4.57 4.30 4.35 4.33 4.10 3.90 3.58 3.19 3.07 3.06 2.99 2.98 3.13 3.47 3.45 3.56 3.62 3.75 3.83 3.65 4.13 4.19 4.15 4.22
0.21 0.25 0.29 0.35 0.31 0.35 0.56 0.77 0.87 1.08 1.37 1.39 1.61 1.77 1.84 1.92 2.37 2.82 2.99 3.36 3.83 4.38 4.86 4.88 4.89 5.08 4.95 4.78 4.66 4.34 3.83 3.39 3.22 3.17 3.04 2.96 3.06 3.15 3.57 3.47 3.50 3.55 3.79 3.92 3.87 4.05 4.11 3.87 3.88
0.14 0.20 0.27 0.34 0.30 0.33 0.54 0.84 1.14 1.30 1.60 1.50 1.52 1.66 1.80 1.91 2.20 2.62 2.89 3.40 4.00 4.46 4.91 5.14 5.25 5.16 5.00 4.64 4.35 4.11 3.87 3.65 3.38 3.15 3.05 3.02 2.96 3.19 3.70 3.44 3.74 3.66 3.71 3.78 3.82 3.99 3.92 3.65 3.83
0.14 0.20 0.25 0.30 0.29 0.38 0.62 0.91 1.23 1.33 1.42 1.39 1.32 1.37 1.57 1.86 2.11 2.60 2.90 3.12 3.53 4.07 4.56 4.91 5.13 5.04 4.66 4.33 4.17 4.10 4.08 3.69 3.40 3.36 3.52 3.32 3.31 3.36 3.42 3.70 3.67 3.77 3.93 3.90 3.85 3.99 3.78 3.42 3.71
0.18 0.21 0.24 0.26 0.28 0.49 0.69 1.24 1.49 1.36 1.38 1.35 1.32 1.34 1.50 1.94 2.38 2.64 2.84 2.98 3.21 3.62 3.95 4.06 4.27 4.26 4.10 4.15 4.18 4.18 4.23 3.84 3.76 3.78 3.80 3.57 3.57 3.58 3.61 3.62 3.57 3.64 3.45 3.55 3.65 3.67 3.72 3.64 3.54
0.23 0.22 0.19 0.22 0.33 0.62 0.75 1.54 1.95 1.69 1.57 1.63 1.62 1.53 1.77 2.03 2.08 2.28 2.55 2.81 2.97 3.21 3.54 3.76 3.83 3.79 3.73 3.86 3.95 3.88 3.70 3.60 3.78 4.06 3.99 3.72 3.50 3.38 3.22 3.17 3.37 3.42 3.18 3.31 2.96 3.17 3.41 3.42 3.27
0.20 0.20 0.21 0.27 0.37 0.63 0.80 1.24 1.83 1.75 1.92 1.87 1.66 1.70 1.97 1.92 1.81 1.95 2.15 2.45 2.57 2.88 3.17 3.37 3.62 3.72 3.69 3.79 3.81 3.86 3.68 3.67 3.73 3.75 3.81 3.62 3.42 3.10 2.75 2.81 3.08 3.08 3.01 2.95 2.85 3.09 2.96 2.91 3.03
0.16 0.21 0.31 0.43 0.62 1.11 0.91 1.02 1.66 1.75 1.65 1.62 1.56 1.50 1.69 1.62 1.59 1.82 2.01 2.28 2.45 2.56 2.71 2.80 3.01 3.29 3.49 3.57 3.57 3.67 3.61 3.54 3.49 3.50 3.41 3.19 3.03 2.82 2.50 2.41 2.67 2.85 2.94 2.92 2.90 3.00 2.92 2.99 3.12
0.17 0.32 0.81 1.25 1.46 1.43 0.80 0.92 1.45 1.34 1.26 1.26 1.36 1.38 1.40 1.35 1.33 1.56 1.72 1.90 2.11 2.21 2.31 2.47 2.76 3.11 3.21 3.20 3.20 3.31 3.36 3.35 3.29 3.28 3.15 2.92 2.69 2.48 2.42 2.44 2.63 2.70 2.80 2.68 2.74 2.84 2.84 3.03 3.12
0.21 0.29 0.79 1.19 1.34 1.26 0.98 1.41 1.83 1.36 1.17 1.20 1.30 1.28 1.25 1.18 1.12 1.26 1.52 1.84 2.00 1.97 2.03 2.21 2.51 2.79 2.84 2.79 2.94 3.21 3.28 3.31 3.23 3.29 2.97 2.72 2.51 2.47 2.57 2.56 2.45 2.42 2.52 2.40 2.72 2.66 2.69 2.94 3.04
0.23 0.25 0.36 0.61 0.75 1.02 1.24 1.56 1.57 1.09 1.01 1.06 1.15 1.15 1.27 1.23 1.14 1.21 1.29 1.50 1.61 1.66 1.74 1.92 2.35 2.64 2.74 2.83 2.99 3.14 3.25 3.19 3.14 3.04 2.76 2.51 2.54 2.49 2.65 2.62 2.55 2.43 2.50 2.63 2.94 2.86 2.79 3.02 3.00
0.21 0.26 0.32 0.50 0.82 1.18 1.36 1.70 1.85 1.30 1.05 0.81 0.79 0.88 0.93 0.96 0.96 1.03 1.06 1.16 1.26 1.45 1.72 1.92 2.11 2.45 2.57 2.68 2.88 2.91 3.14 3.03 2.86 2.81 2.59 2.36 2.27 2.37 2.62 2.77 2.66 2.51 2.54 2.72 2.94 2.91 3.05 3.24 3.29
0.24 0.26 0.31 0.40 0.54 0.91 1.50 1.74 1.33 1.06 0.93 0.86 0.80 0.89 0.94 0.93 0.87 0.89 1.01 1.13 1.23 1.39 1.63 1.78 1.83 2.06 2.26 2.42 2.64 2.65 2.66 2.73 2.77 2.60 2.34 2.30 2.36 2.48 2.55 2.67 2.65 2.56 2.60 2.75 2.82 2.79 3.12 3.28 3.33
0.24 0.24 0.28 0.41 0.43 0.54 0.94 1.32 0.89 0.88 0.95 0.92 0.88 0.95 1.04 1.01 0.96 0.99 1.13 1.25 1.34 1.52 1.58 1.61 1.68 1.89 2.11 2.35 2.60 2.76 2.76 2.71 2.70 2.55 2.36 2.37 2.46 2.48 2.43 2.51 2.51 2.39 2.46 2.68 2.68 2.74 3.10 3.33 3.16